Location: Sungai Buloh
(3.1000°N, 113.0000°E)
Time: 21:23:08
(UTC+00:00)

Cosmos 968 Rocket - Pass Details

Date: 12 January 2026
Orbit: 737 x 765 km, 74.0° (Epoch: 10 February)

Event Time Altitude Azimuth Distance (km) Brightness Sun altitude
Rises 12:15:23 0° 340° (NNW) 3,162 6.7 -24.1°
Reaches altitude 10° 12:17:46 10° 336° (NNW) 2,238 5.9 -24.7°
Maximum altitude 12:22:43 58° 258° (WSW) 859 3.9 -25.8°
Drops below altitude 10° 12:27:42 10° 179° (S) 2,238 6.1 -27.0°
Sets 12:30:05 0° 175° (S) 3,162 6.9 -27.5°
